Time,TemperatureF,DewpointF,PressureIn,WindDirection,WindDirectionDegrees,WindSpeedMPH,WindSpeedGustMPH,Humidity,HourlyPrecipIn,Conditions,Clouds,dailyrainin,SoftwareType,DateUTC
2013-04-29 00:03:00,-999.0,-99.9,30.33,WNW,303,5.0,8.0,-999,-99.99,,,-99.99,,2013-04-29 08:03:00,
2013-04-29 00:11:00,25.0,-99.9,30.33,NW,319,5.0,6.0,-999,-99.99,,,-99.99,,2013-04-29 08:11:00,
2013-04-29 00:22:00,-999.0,-99.9,30.32,NW,305,4.0,5.0,-999,-99.99,,,-99.99,,2013-04-29 08:22:00,
2013-04-29 00:32:00,-999.0,-99.9,30.32,WNW,297,3.0,5.0,-999,-99.99,,,-99.99,,2013-04-29 08:32:00,
2013-04-29 00:42:00,25.0,-99.9,30.32,West,281,2.0,3.0,-999,-99.99,,,-99.99,,2013-04-29 08:42:00,
2013-04-29 00:52:00,-999.0,-99.9,30.32,West,270,4.0,4.0,-999,-99.99,,,-99.99,,2013-04-29 08:52:00,
2013-04-29 01:02:00,-999.0,-99.9,30.32,West,278,4.0,5.0,-999,-99.99,,,-99.99,,2013-04-29 09:02:00,
2013-04-29 01:12:00,-999.0,-99.9,30.31,WNW,285,3.0,4.0,-999,-99.99,,,-99.99,,2013-04-29 09:12:00,
2013-04-29 01:22:00,-999.0,-99.9,30.31,WNW,288,3.0,3.0,-999,-99.99,,,-99.99,,2013-04-29 09:22:00,
2013-04-29 01:33:00,-999.0,-99.9,30.31,WNW,287,3.0,3.0,-999,-99.99,,,-99.99,,2013-04-29 09:33:00,
2013-04-29 01:42:00,24.0,-99.9,30.31,West,281,3.0,3.0,-999,-99.99,,,-99.99,,2013-04-29 09:42:00,
2013-04-29 01:53:00,-999.0,-99.9,30.31,WNW,288,2.0,3.0,-999,-99.99,,,-99.99,,2013-04-29 09:53:00,
2013-04-29 02:03:00,-999.0,-99.9,30.31,WNW,298,2.0,3.0,-999,-99.99,,,-99.99,,2013-04-29 10:03:00,
2013-04-29 02:12:00,24.0,-99.9,30.31,NW,318,2.0,2.0,-999,-99.99,,,-99.99,,2013-04-29 10:12:00,
2013-04-29 02:23:00,-999.0,-99.9,30.30,WNW,296,1.0,2.0,-999,-99.99,,,-99.99,,2013-04-29 10:23:00,
2013-04-29 02:32:00,-999.0,-99.9,30.30,NW,318,1.0,2.0,-999,-99.99,,,-99.99,,2013-04-29 10:32:00,
2013-04-29 02:42:00,25.0,-99.9,30.30,NW,315,2.0,2.0,-999,-99.99,,,-99.99,,2013-04-29 10:42:00,
2013-04-29 02:52:00,-999.0,-99.9,30.30,West,277,5.0,6.0,-999,-99.99,,,-99.99,,2013-04-29 10:52:00,
2013-04-29 03:03:00,-999.0,-99.9,30.29,WNW,282,13.0,14.0,-999,-99.99,,,-99.99,,2013-04-29 11:03:00,
2013-04-29 03:12:00,25.0,-99.9,30.29,West,281,17.0,18.0,-999,-99.99,,,-99.99,,2013-04-29 11:12:00,
2013-04-29 03:22:00,-999.0,-99.9,30.29,West,281,15.0,17.0,-999,-99.99,,,-99.99,,2013-04-29 11:22:00,
2013-04-29 03:32:00,-999.0,-99.9,30.29,West,281,15.0,17.0,-999,-99.99,,,-99.99,,2013-04-29 11:32:00,
2013-04-29 03:42:00,-999.0,-99.9,30.29,WNW,290,14.0,16.0,-999,-99.99,,,-99.99,,2013-04-29 11:42:00,
2013-04-29 03:52:00,25.0,-99.9,30.29,WNW,292,14.0,17.0,-999,-99.99,,,-99.99,,2013-04-29 11:52:00,
2013-04-29 04:01:00,-999.0,-99.9,30.29,WNW,296,11.0,14.0,-999,-99.99,,,-99.99,,2013-04-29 12:01:00,
2013-04-29 04:12:00,25.0,-99.9,30.29,WNW,294,11.0,12.0,-999,-99.99,,,-99.99,,2013-04-29 12:12:00,
2013-04-29 04:22:00,-999.0,-99.9,30.28,WNW,290,12.0,13.0,-999,-99.99,,,-99.99,,2013-04-29 12:22:00,
2013-04-29 04:32:00,-999.0,-99.9,30.28,WNW,289,10.0,12.0,-999,-99.99,,,-99.99,,2013-04-29 12:32:00,
2013-04-29 04:42:00,-999.0,-99.9,30.28,WNW,284,11.0,12.0,-999,-99.99,,,-99.99,,2013-04-29 12:42:00,
2013-04-29 04:52:00,-999.0,-99.9,30.27,WNW,284,11.0,12.0,-999,-99.99,,,-99.99,,2013-04-29 12:52:00,
2013-04-29 05:01:00,-999.0,-99.9,30.27,WNW,288,10.0,11.0,-999,-99.99,,,-99.99,,2013-04-29 13:01:00,
2013-04-29 05:11:00,24.0,-99.9,30.27,WNW,288,11.0,14.0,-999,-99.99,,,-99.99,,2013-04-29 13:11:00,
2013-04-29 05:22:00,-999.0,-99.9,30.27,WNW,301,9.0,10.0,-999,-99.99,,,-99.99,,2013-04-29 13:22:00,
2013-04-29 05:32:00,-999.0,-99.9,30.27,WNW,294,7.0,8.0,-999,-99.99,,,-99.99,,2013-04-29 13:32:00,
2013-04-29 05:42:00,24.0,-99.9,30.27,WNW,289,6.0,7.0,-999,-99.99,,,-99.99,,2013-04-29 13:42:00,
2013-04-29 05:52:00,-999.0,-99.9,30.27,WNW,283,5.0,7.0,-999,-99.99,,,-99.99,,2013-04-29 13:52:00,
2013-04-29 06:02:00,-999.0,-99.9,30.27,NW,304,4.0,6.0,-999,-99.99,,,-99.99,,2013-04-29 14:02:00,
2013-04-29 06:12:00,-999.0,-99.9,30.27,NNW,335,3.0,4.0,-999,-99.99,,,-99.99,,2013-04-29 14:12:00,
2013-04-29 06:22:00,24.0,-99.9,30.27,NW,325,3.0,4.0,-999,-99.99,,,-99.99,,2013-04-29 14:22:00,
2013-04-29 06:32:00,-999.0,-99.9,30.27,North,351,3.0,4.0,-999,-99.99,,,-99.99,,2013-04-29 14:32:00,
2013-04-29 06:42:00,25.0,-99.9,30.26,North,353,3.0,4.0,-999,-99.99,,,-99.99,,2013-04-29 14:42:00,
2013-04-29 06:52:00,-999.0,-99.9,30.26,NNW,348,4.0,4.0,-999,-99.99,,,-99.99,,2013-04-29 14:52:00,
2013-04-29 07:01:00,-999.0,-99.9,30.26,North,356,3.0,3.0,-999,-99.99,,,-99.99,,2013-04-29 15:01:00,
2013-04-29 07:12:00,-999.0,-99.9,30.26,North,360,3.0,4.0,-999,-99.99,,,-99.99,,2013-04-29 15:12:00,
2013-04-29 07:22:00,-999.0,-99.9,30.26,North,352,3.0,4.0,-999,-99.99,,,-99.99,,2013-04-29 15:22:00,
2013-04-29 07:33:00,-999.0,-99.9,30.26,North,349,3.0,3.0,-999,-99.99,,,-99.99,,2013-04-29 15:33:00,
2013-04-29 07:43:00,25.0,-99.9,30.25,North,2,2.0,2.0,-999,-99.99,,,-99.99,,2013-04-29 15:43:00,
2013-04-29 07:53:00,-999.0,-99.9,30.25,NNE,29,2.0,2.0,-999,-99.99,,,-99.99,,2013-04-29 15:53:00,
2013-04-29 08:03:00,-999.0,-99.9,30.25,North,356,2.0,2.0,-999,-99.99,,,-99.99,,2013-04-29 16:03:00,
2013-04-29 08:13:00,25.0,-99.9,30.25,North,352,2.0,3.0,-999,-99.99,,,-99.99,,2013-04-29 16:13:00,
2013-04-29 08:23:00,-999.0,-99.9,30.25,NW,315,3.0,3.0,-999,-99.99,,,-99.99,,2013-04-29 16:23:00,
2013-04-29 08:33:00,-999.0,-99.9,30.25,WNW,297,4.0,5.0,-999,-99.99,,,-99.99,,2013-04-29 16:33:00,
2013-04-29 08:42:00,25.0,-99.9,30.25,WNW,299,5.0,5.0,-999,-99.99,,,-99.99,,2013-04-29 16:42:00,
2013-04-29 08:52:00,-999.0,-99.9,30.25,WNW,300,4.0,5.0,-999,-99.99,,,-99.99,,2013-04-29 16:52:00,
2013-04-29 09:02:00,-999.0,-99.9,30.25,WNW,283,4.0,4.0,-999,-99.99,,,-99.99,,2013-04-29 17:02:00,
2013-04-29 09:12:00,25.0,-99.9,30.25,West,277,4.0,4.0,-999,-99.99,,,-99.99,,2013-04-29 17:12:00,
2013-04-29 09:23:00,-999.0,-99.9,30.25,West,277,5.0,6.0,-999,-99.99,,,-99.99,,2013-04-29 17:23:00,
2013-04-29 09:32:00,-999.0,-99.9,30.24,West,280,4.0,5.0,-999,-99.99,,,-99.99,,2013-04-29 17:32:00,
2013-04-29 09:42:00,-999.0,-99.9,30.24,West,263,2.0,3.0,-999,-99.99,,,-99.99,,2013-04-29 17:42:00,
2013-04-29 09:52:00,-999.0,-99.9,30.24,SW,219,1.0,2.0,-999,-99.99,,,-99.99,,2013-04-29 17:52:00,
2013-04-29 10:13:00,26.0,-99.9,30.24,WSW,257,1.0,1.0,-999,-99.99,,,-99.99,,2013-04-29 18:13:00,
2013-04-29 10:22:00,-999.0,-99.9,30.24,WNW,282,1.0,1.0,-999,-99.99,,,-99.99,,2013-04-29 18:22:00,
2013-04-29 10:32:00,-999.0,-99.9,30.24,WNW,284,1.0,2.0,-999,-99.99,,,-99.99,,2013-04-29 18:32:00,
2013-04-29 10:42:00,26.0,-99.9,30.24,West,276,1.0,2.0,-999,-99.99,,,-99.99,,2013-04-29 18:42:00,
2013-04-29 10:52:00,-999.0,-99.9,30.24,West,265,1.0,2.0,-999,-99.99,,,-99.99,,2013-04-29 18:52:00,
2013-04-29 11:01:00,-999.0,-99.9,30.24,West,259,2.0,2.0,-999,-99.99,,,-99.99,,2013-04-29 19:01:00,
2013-04-29 11:12:00,27.0,-99.9,30.24,West,261,2.0,2.0,-999,-99.99,,,-99.99,,2013-04-29 19:12:00,
2013-04-29 11:22:00,-999.0,-99.9,30.24,West,259,2.0,2.0,-999,-99.99,,,-99.99,,2013-04-29 19:22:00,
2013-04-29 11:32:00,-999.0,-99.9,30.24,WSW,253,2.0,2.0,-999,-99.99,,,-99.99,,2013-04-29 19:32:00,
2013-04-29 11:42:00,27.0,-99.9,30.24,WSW,256,3.0,4.0,-999,-99.99,,,-99.99,,2013-04-29 19:42:00,
2013-04-29 11:52:00,-999.0,-99.9,30.24,West,263,3.0,3.0,-999,-99.99,,,-99.99,,2013-04-29 19:52:00,
2013-04-29 12:02:00,-999.0,-99.9,30.24,WSW,257,2.0,3.0,-999,-99.99,,,-99.99,,2013-04-29 20:02:00,
2013-04-29 12:12:00,-999.0,-99.9,30.24,WSW,257,1.0,2.0,-999,-99.99,,,-99.99,,2013-04-29 20:12:00,
2013-04-29 12:22:00,28.0,-99.9,30.24,West,279,2.0,3.0,-999,-99.99,,,-99.99,,2013-04-29 20:22:00,
2013-04-29 12:32:00,-999.0,-99.9,30.24,NW,325,1.0,1.0,-999,-99.99,,,-99.99,,2013-04-29 20:32:00,
2013-04-29 12:43:00,30.0,-99.9,30.24,North,358,0.0,1.0,-999,-99.99,,,-99.99,,2013-04-29 20:43:00,
2013-04-29 13:02:00,-999.0,-99.9,30.24,WSW,247,3.0,3.0,-999,-99.99,,,-99.99,,2013-04-29 21:02:00,
2013-04-29 13:12:00,-999.0,-99.9,30.24,SW,235,3.0,4.0,-999,-99.99,,,-99.99,,2013-04-29 21:12:00,
2013-04-29 13:22:00,-999.0,-99.9,30.24,WSW,252,3.0,4.0,-999,-99.99,,,-99.99,,2013-04-29 21:22:00,
2013-04-29 13:33:00,-999.0,-99.9,30.24,WSW,250,2.0,4.0,-999,-99.99,,,-99.99,,2013-04-29 21:33:00,
2013-04-29 13:43:00,30.0,-99.9,30.24,WSW,252,2.0,3.0,-999,-99.99,,,-99.99,,2013-04-29 21:43:00,
2013-04-29 13:53:00,-999.0,-99.9,30.24,West,260,4.0,4.0,-999,-99.99,,,-99.99,,2013-04-29 21:53:00,
2013-04-29 14:03:00,-999.0,-99.9,30.24,West,280,3.0,4.0,-999,-99.99,,,-99.99,,2013-04-29 22:03:00,
2013-04-29 14:13:00,29.0,-99.9,30.24,WNW,283,3.0,4.0,-999,-99.99,,,-99.99,,2013-04-29 22:13:00,
2013-04-29 14:23:00,-999.0,-99.9,30.24,West,272,3.0,4.0,-999,-99.99,,,-99.99,,2013-04-29 22:23:00,
2013-04-29 14:33:00,-999.0,-99.9,30.24,West,268,2.0,3.0,-999,-99.99,,,-99.99,,2013-04-29 22:33:00,
2013-04-29 14:42:00,-999.0,-99.9,30.24,West,260,3.0,4.0,-999,-99.99,,,-99.99,,2013-04-29 22:42:00,
2013-04-29 14:53:00,31.0,-99.9,30.24,WSW,238,2.0,3.0,-999,-99.99,,,-99.99,,2013-04-29 22:53:00,
2013-04-29 15:02:00,-999.0,-99.9,30.24,WSW,246,3.0,4.0,-999,-99.99,,,-99.99,,2013-04-29 23:02:00,
2013-04-29 15:12:00,29.0,-99.9,30.24,SW,233,3.0,3.0,-999,-99.99,,,-99.99,,2013-04-29 23:12:00,
2013-04-29 15:22:00,-999.0,-99.9,30.24,SW,229,4.0,5.0,-999,-99.99,,,-99.99,,2013-04-29 23:22:00,
2013-04-29 15:32:00,-999.0,-99.9,30.24,WSW,257,3.0,4.0,-999,-99.99,,,-99.99,,2013-04-29 23:32:00,
2013-04-29 15:42:00,-999.0,-99.9,30.24,WSW,258,3.0,4.0,-999,-99.99,,,-99.99,,2013-04-29 23:42:00,
2013-04-29 15:53:00,-999.0,-99.9,30.24,WSW,256,3.0,4.0,-999,-99.99,,,-99.99,,2013-04-29 23:53:00,
2013-04-29 16:01:00,-999.0,-99.9,30.24,West,263,4.0,6.0,-999,-99.99,,,-99.99,,2013-04-30 00:01:00,
2013-04-29 16:11:00,30.0,-99.9,30.24,West,263,5.0,5.0,-999,-99.99,,,-99.99,,2013-04-30 00:11:00,
2013-04-29 16:22:00,-999.0,-99.9,30.24,West,265,5.0,6.0,-999,-99.99,,,-99.99,,2013-04-30 00:22:00,
2013-04-29 16:32:00,-999.0,-99.9,30.24,West,268,5.0,6.0,-999,-99.99,,,-99.99,,2013-04-30 00:32:00,
2013-04-29 16:42:00,29.0,-99.9,30.24,West,261,5.0,6.0,-999,-99.99,,,-99.99,,2013-04-30 00:42:00,
2013-04-29 16:52:00,-999.0,-99.9,30.24,West,271,4.0,5.0,-999,-99.99,,,-99.99,,2013-04-30 00:52:00,
2013-04-29 17:02:00,-999.0,-99.9,30.24,West,262,4.0,5.0,-999,-99.99,,,-99.99,,2013-04-30 01:02:00,
2013-04-29 17:11:00,30.0,-99.9,30.24,West,265,5.0,6.0,-999,-99.99,,,-99.99,,2013-04-30 01:11:00,
2013-04-29 17:22:00,-999.0,-99.9,30.24,West,264,6.0,7.0,-999,-99.99,,,-99.99,,2013-04-30 01:22:00,
2013-04-29 17:32:00,-999.0,-99.9,30.24,WSW,248,6.0,7.0,-999,-99.99,,,-99.99,,2013-04-30 01:32:00,
2013-04-29 17:42:00,30.0,-99.9,30.24,WSW,250,6.0,7.0,-999,-99.99,,,-99.99,,2013-04-30 01:42:00,
2013-04-29 17:52:00,-999.0,-99.9,30.24,WSW,247,6.0,7.0,-999,-99.99,,,-99.99,,2013-04-30 01:52:00,
2013-04-29 18:01:00,-999.0,-99.9,30.24,West,268,7.0,8.0,-999,-99.99,,,-99.99,,2013-04-30 02:01:00,
2013-04-29 18:11:00,-999.0,-99.9,30.24,West,265,6.0,7.0,-999,-99.99,,,-99.99,,2013-04-30 02:11:00,
2013-04-29 18:21:00,30.0,-99.9,30.24,WSW,254,6.0,8.0,-999,-99.99,,,-99.99,,2013-04-30 02:21:00,
2013-04-29 18:32:00,-999.0,-99.9,30.24,West,269,7.0,7.0,-999,-99.99,,,-99.99,,2013-04-30 02:32:00,
2013-04-29 18:42:00,30.0,-99.9,30.23,WSW,257,6.0,7.0,-999,-99.99,,,-99.99,,2013-04-30 02:42:00,
2013-04-29 18:52:00,-999.0,-99.9,30.23,WSW,257,6.0,7.0,-999,-99.99,,,-99.99,,2013-04-30 02:52:00,
2013-04-29 19:01:00,-999.0,-99.9,30.23,WSW,257,5.0,6.0,-999,-99.99,,,-99.99,,2013-04-30 03:01:00,
2013-04-29 19:11:00,-999.0,-99.9,30.23,WSW,252,4.0,4.0,-999,-99.99,,,-99.99,,2013-04-30 03:11:00,
2013-04-29 19:22:00,-999.0,-99.9,30.23,West,271,2.0,4.0,-999,-99.99,,,-99.99,,2013-04-30 03:22:00,
2013-04-29 19:33:00,-999.0,-99.9,30.23,West,278,3.0,5.0,-999,-99.99,,,-99.99,,2013-04-30 03:33:00,
2013-04-29 19:43:00,31.0,-99.9,30.23,WNW,294,0.0,3.0,-999,-99.99,,,-99.99,,2013-04-30 03:43:00,
2013-04-29 19:53:00,-999.0,-99.9,30.23,ENE,74,2.0,3.0,-999,-99.99,,,-99.99,,2013-04-30 03:53:00,
2013-04-29 20:02:00,-999.0,-99.9,30.23,NE,34,3.0,5.0,-999,-99.99,,,-99.99,,2013-04-30 04:02:00,
2013-04-29 20:12:00,31.0,-99.9,30.23,NNE,15,2.0,6.0,-999,-99.99,,,-99.99,,2013-04-30 04:12:00,
2013-04-29 20:22:00,-999.0,-99.9,30.23,NW,316,4.0,5.0,-999,-99.99,,,-99.99,,2013-04-30 04:22:00,
2013-04-29 20:32:00,-999.0,-99.9,30.23,North,356,10.0,13.0,-999,-99.99,,,-99.99,,2013-04-30 04:32:00,
2013-04-29 20:42:00,-999.0,-99.9,30.23,North,356,12.0,14.0,-999,-99.99,,,-99.99,,2013-04-30 04:42:00,
2013-04-29 20:52:00,30.0,-99.9,30.23,North,358,10.0,13.0,-999,-99.99,,,-99.99,,2013-04-30 04:52:00,
2013-04-29 21:02:00,-999.0,-99.9,30.23,NNW,348,11.0,14.0,-999,-99.99,,,-99.99,,2013-04-30 05:02:00,
2013-04-29 21:12:00,30.0,-99.9,30.23,NNW,348,10.0,12.0,-999,-99.99,,,-99.99,,2013-04-30 05:12:00,
2013-04-29 21:22:00,-999.0,-99.9,30.23,NNW,337,9.0,11.0,-999,-99.99,,,-99.99,,2013-04-30 05:22:00,
2013-04-29 21:32:00,-999.0,-99.9,30.23,North,349,10.0,11.0,-999,-99.99,,,-99.99,,2013-04-30 05:32:00,
2013-04-29 21:42:00,-999.0,-99.9,30.23,North,358,10.0,12.0,-999,-99.99,,,-99.99,,2013-04-30 05:42:00,
2013-04-29 21:51:00,-999.0,-99.9,30.23,North,359,11.0,13.0,-999,-99.99,,,-99.99,,2013-04-30 05:51:00,
2013-04-29 22:02:00,-999.0,-99.9,30.23,North,7,8.0,10.0,-999,-99.99,,,-99.99,,2013-04-30 06:02:00,
2013-04-29 22:12:00,29.0,-99.9,30.24,North,11,7.0,10.0,-999,-99.99,,,-99.99,,2013-04-30 06:12:00,
2013-04-29 22:21:00,-999.0,-99.9,30.24,NNE,12,11.0,14.0,-999,-99.99,,,-99.99,,2013-04-30 06:21:00,
2013-04-29 22:32:00,-999.0,-99.9,30.24,North,11,9.0,11.0,-999,-99.99,,,-99.99,,2013-04-30 06:32:00,
2013-04-29 22:42:00,28.0,-99.9,30.24,NNE,13,9.0,12.0,-999,-99.99,,,-99.99,,2013-04-30 06:42:00,
2013-04-29 22:52:00,-999.0,-99.9,30.24,North,5,10.0,12.0,-999,-99.99,,,-99.99,,2013-04-30 06:52:00,
2013-04-29 23:02:00,-999.0,-99.9,30.24,North,6,9.0,14.0,-999,-99.99,,,-99.99,,2013-04-30 07:02:00,
2013-04-29 23:11:00,26.0,-99.9,30.24,North,10,10.0,13.0,-999,-99.99,,,-99.99,,2013-04-30 07:11:00,
2013-04-29 23:21:00,-999.0,-99.9,30.24,North,7,9.0,15.0,-999,-99.99,,,-99.99,,2013-04-30 07:21:00,
2013-04-29 23:32:00,-999.0,-99.9,30.24,NNE,12,10.0,14.0,-999,-99.99,,,-99.99,,2013-04-30 07:32:00,
2013-04-29 23:42:00,25.0,-99.9,30.24,North,357,12.0,15.0,-999,-99.99,,,-99.99,,2013-04-30 07:42:00,
2013-04-29 23:52:00,-999.0,-99.9,30.25,NNE,15,10.0,13.0,-999,-99.99,,,-99.99,,2013-04-30 07:52:00,